STARLINK-34642 (64910 NORAD) Tracking and Keplerian Element Data

This shows tracking and keplerian element data for the satellite.

Feedback or suggestion? Click here.




ElementValue
Catalog64910
NameSTARLINK-34642
Epoch Orbit2387
Epoch Day354.00762774
Epoch Year2025
RAAN359.372
Inclination53.159
Eccentricity0.0001203
Argument of Perigee92.8764
Mean Anonmoly267.2379
Mean Motion15.39642835
Decay Rate0.00039493
L11 64910U 25157G 25354.00762774 .00039493 00000+0 99144-3 0 9999
L22 64910 53.1590 359.3720 0001203 92.8764 267.2379 15.39642835 23878



Live tracking and technical data element details for STARLINK-34642 (NORAD 64910). STARLINK-34642 can be tracked NOW for your location showing map with azimuth and elevation plus other details from your city location.







IsCatalogInMostPopularTable: catalog: 64910, numindb: 11
Update: records affected: 1



GetName: 64910 STARLINK-34642

Hit Count: updated at: Sat, 11 Apr 2026 21:24:56 GMT